Location: Alvis C Story Elementary School
(33.0968°N, 96.6364°W)
Time: 15:04:08
(UTC+00:00)

Cosmos 1092 Rocket - Visible Passes

Search period start: 04 July 2022 00:00
Search period end: 14 July 2022 00:00
Orbit: 953 x 996 km, 83.0° (Epoch: 03 July)

Date Brightness Start Highest point End Pass type
(mag) Time Alt. Az. Time Alt. Az. Time Alt. Az.
05 Jul 6.9 10:42:57 10° ESE 10:45:31 13° E 10:48:05 10° ENE visible
09 Jul 6.5 10:35:52 10° SE 10:40:20 21° E 10:44:47 10° NE visible
12 Jul 6.5 10:06:37 10° ESE 10:10:27 17° E 10:14:18 10° NE visible
13 Jul 5.6 10:29:48 10° SSE 10:35:13 34° E 10:40:40 10° NNE visible
